Flag for U.S.A. Weather past 2 weeks in El Paso, Texas, U.S.A.

Now
79 °F

Passing clouds.


Feels Like: 78 °F
Forecast: 55 / 83 °F
Wind: 18 mph from West

Location: El Paso International Airport

Current Time: May 24, 2015 at 2:16:35 PM

Latest Report: May 24, 2015 at 1:51 PM


Visibility: 10 mi

Pressure: 29.72 "Hg

Humidity: 12%

Dew point: 22 °F

Location of El PasoLocation

Historic Weather in El Paso — Graph

°F

El Paso temperature yesterday

Maximum temperature yesterday: 82 °F (at 4:51 PM)
Minimum temperature yesterday: 67 °F (at 6:51 AM)
Average temperature yesterday: 75 °F

Past Weeks' High & Low Weather Summary

 TemperatureHumidityPressure
High91 °F (May 18, 3:51 PM)93% (May 12, 10:51 PM)30.09 "Hg (May 12, 10:51 PM)
Low54 °F (May 11, 5:51 AM)4% (May 22, 6:51 PM)29.54 "Hg (May 15, 6:51 PM)
Average71 °F32%29.80 "Hg
* Reported May 9 12:51 PM — May 24 12:51 PM, El Paso, Weather by CustomWeather, © 2015

Note: Actual official high and low records may vary slightly from our data, if they occured in-between our weather recording intervals... More about our weather records

Advertising

El Paso weather history for previous 24 hours

 ConditionsComfort  
Time TempWeatherWind HumidityBarometerVisibility
12:51 PM
Sun, May 24
77 °FPassing clouds.15 mph14%29.76 "Hg10 mi
11:51 AM75 °FPassing clouds.17 mph17%29.78 "Hg10 mi
10:51 AM72 °FSunny.13 mph19%29.80 "Hg10 mi
9:51 AM71 °FSunny.12 mph21%29.81 "Hg10 mi
8:51 AM68 °FSunny.9 mph22%29.80 "Hg10 mi
7:51 AM67 °FSunny.9 mph22%29.78 "Hg10 mi
6:51 AM62 °FClear.9 mph25%29.78 "Hg10 mi
5:51 AM65 °FClear.16 mph23%29.76 "Hg10 mi
4:51 AM65 °FClear.13 mph21%29.76 "Hg10 mi
3:51 AM65 °FClear.12 mph21%29.76 "Hg10 mi
2:51 AM68 °FClear.13 mph18%29.75 "Hg10 mi
1:51 AM68 °FClear.13 mph18%29.75 "Hg10 mi
12:51 AM70 °FClear.9 mph15%29.74 "Hg10 mi
11:51 PM
Sat, May 23
71 °FClear.14 mph13%29.73 "Hg10 mi
10:51 PM72 °FClear.13 mph13%29.73 "Hg10 mi
9:51 PM74 °FClear.14 mph10%29.70 "Hg10 mi
8:51 PM76 °FSunny.14 mph9%29.68 "Hg10 mi
7:51 PM78 °FPassing clouds.21 mph8%29.67 "Hg10 mi
6:51 PM80 °FPassing clouds.13 mph7%29.64 "Hg10 mi
5:51 PM81 °FPassing clouds.21 mph7%29.62 "Hg10 mi
4:51 PM82 °FSunny.18 mph8%29.63 "Hg10 mi
3:51 PM81 °FPassing clouds.13 mph9%29.66 "Hg10 mi
2:51 PM81 °FPassing clouds.20 mph9%29.69 "Hg10 mi
Weather by CustomWeather, © 2015

See weather overviewHow to use our weather pages